Location: Musselshell
(46.5176°N, 108.0911°W)
Time: 01:20:54
(UTC+00:00)

VELOX 1 - Pass Details

Date: 09 July 2022
Orbit: 623 x 639 km, 98.4° (Epoch: 17 August)

Event Time Altitude Azimuth Distance (km) Brightness Sun altitude
Rises 10:28:01 0° 126° (SE) 2,931 ? -8.8°
Reaches altitude 10° 10:30:40 10° 110° (ESE) 2,029 ? -8.5°
Maximum altitude 10:33:54 20° 62° (ENE) 1,464 ? -8.1°
Drops below altitude 10° 10:37:10 10° 15° (NNE) 2,043 ? -7.7°
Sets 10:39:50 0° 359° (N) 2,958 ? -7.4°
